ASNARO

Satellite information

Favourite Embed

Satellite Type and Status

PAYLOADIN ORBIT

Key statistics

Satellite ASNARO at a glance.

Uptime

4006

Days in orbit

Revolutions

≈ 15.2

Per day

Orbit

SSO

Sun Synchronous Orbit

Inclination

97.4

Latest

Satellite identification and parameters

Extended collection of information and parameters for ASNARO.

Object identification

Identified? True

Debris? False

Object name: ASNARO

International designator: 2014-070A

Object number (NORAD): 40298

Object ID (CCSDS): 40298

Country: JAPAN (JPN)

Current information (Y/N): Y

RCS size: LARGE

Orbital parameters

Period: 94.773 minutes

Inclination: 97.3693 deg

SMA: 6885.744 km

Apoapsis: 510.64 km

Periapsis: 504.578 km

RAAN: 14.9417 deg

Eccentricy: 0.0004402

Argument of periapsis: 225.3731 deg

Mean anomaly: 134.7145 deg

Mean motion: 15.19415266 rev/day

Mean motion (dot): 0.00013668 rev/day2

B* drag term: 0.00064773468 1/REarth

Two-line elements (TLE)

Creation date: Oct. 25, 2025, 3:11 a.m.

Reference frame: TEME

Reference center: EARTH

Epoch: Oct. 24, 2025, 7:28 p.m. UTC

TLE line 0: 0 ASNARO

TLE line 1: 1 40298U 14070A 25297.81175190 .00013668 00000-0 64773-3 0 9996

TLE line 2: 2 40298 97.3693 14.9417 0004402 225.3731 134.7145 15.19415266608268

Live tracking on map

Real-time ground track for satellite ASNARO.

In-orbit conjunctions

There are no conjunctions computed for ASNARO, at the moment. Check back to stay up to date, as we update our databases every day.

Go to all conjunctions

Associated space launch

ASNARO was lifted into orbit during the mission ‘Dnepr 1 | ASNARO’, on board a Dnepr space rocket.

The launch took place on Nov. 6, 2014, 7:35 a.m. from 370/13.

For more information about the launch, click the button.

Launch to space Dnepr 1 | ASNARO
Dnepr 1 | ASNARO

Agency: N/A

Status: Launch Successful

Launch date: Nov. 6, 2014, 7:35 a.m. UTC

Rocket: Dnepr

Launch pad: 370/13

Location: Dombarovskiy, Russian Federation

...

Latest news about this satellite

There are no fresh news available about this satellite. Check back as we update our databases every day.


Newsletter sign-up

Weekly statistics, charts and insights to help you stay on top of the space industry.